CW5709 Weather Reports


Display with metric or nautical units.
time (UTC)temp
F
wind
direction
speed
MPH
gust
MPH
rain 1hr
in
rain 24hr
in
rain mn
in
humidity
%
barometer
mb
20260506071528 54 0.0 0.0 0.00 0.00 0.00 85 1018.0
20260506061525 55 0.0 0.0 0.00 0.00 0.00 83 1017.7
20260506044537 58 0.0 0.0 0.00 0.00 0.00 76 1017.3
20260506043021 59 0.0 0.0 0.00 0.00 0.00 74 1017.1
20260506041517 60 0.0 0.0 0.00 0.00 0.00 71 1016.9
20260506040029 61 0.0 0.0 0.00 0.00 0.00 69 1016.9
20260506034506 63 0.0 0.0 0.00 0.00 0.00 69 1016.4
20260506033008 64 0.0 0.0 0.00 0.00 0.00 68 1016.3
20260506031517 65 0.0 0.0 0.00 0.00 0.00 66 1016.1
20260506030022 65 0.0 0.0 0.00 0.00 0.00 66 1015.9
20260506024527 65 0.0 0.0 0.00 0.00 0.00 66 1015.8
20260506023015 66 0.0 0.0 0.00 0.00 0.00 65 1015.7
20260506021512 66 0.0 0.0 0.00 0.00 0.00 65 1015.7
20260506020013 67 0.0 0.0 0.00 0.00 0.00 64 1015.7
20260506014519 67 0.0 0.0 0.00 0.00 0.00 63 1015.5
20260506013024 67 0.0 0.0 0.00 0.00 0.00 63 1015.4
20260506011528 67 0.0 0.0 0.00 0.00 0.00 63 1015.5
20260506010012 67 0.0 0.0 0.00 0.00 0.00 63 1015.4
20260506003021 67 0.0 0.0 0.00 0.00 0.00 62 1015.5
20260506001525 67 0.0 0.0 0.00 0.00 0.00 61 1015.5
20260506000012 68 0.0 0.0 0.00 0.00 0.00 61 1015.6
20260505234518 68 0.0 0.0 0.00 0.00 0.00 61 1015.7
20260505233027 68 0.0 0.0 0.00 0.00 0.00 59 1015.8
20260505231536 68 0.0 0.0 0.00 0.00 0.00 59 1015.9
20260505224511 70 0.0 0.0 0.00 0.00 0.00 56 1016.1
20260505223020 71 0.0 0.0 0.00 0.00 0.00 55 1016.1
20260505221504 69 0.0 0.0 0.00 0.00 0.00 56 1016.3
20260505220017 68 0.0 0.0 0.00 0.00 0.00 59 1016.7
20260505210006 65 0.0 0.0 0.00 0.00 0.00 62 1017.0
20260505204510 64 0.0 0.0 0.00 0.00 0.00 63 1017.0
20260505203014 64 0.0 0.0 0.00 0.00 0.00 64 1017.1
20260505201518 64 0.0 0.0 0.00 0.00 0.00 64 1017.1
20260505194517 64 0.0 0.0 0.00 0.00 0.00 65 1017.1
20260505190021 62 0.0 0.0 0.00 0.00 0.00 66 1017.2
20260505184527 62 0.0 0.0 0.00 0.00 0.00 66 1017.1
20260505181515 61 0.0 0.0 0.00 0.00 0.00 68 1017.1
20260505180021 61 0.0 0.0 0.00 0.00 0.00 69 1017.0
20260505174523 61 0.0 0.0 0.00 0.00 0.00 68 1017.0
20260505173026 60 0.0 0.0 0.00 0.00 0.00 68 1016.9
20260505171511 60 0.0 0.0 0.00 0.00 0.00 71 1016.8
20260505164519 58 0.0 0.0 0.00 0.00 0.00 74 1016.8
20260505163022 57 0.0 0.0 0.00 0.00 0.00 74 1016.8
20260505161524 57 0.0 0.0 0.00 0.00 0.00 74 1016.8
20260505153021 56 0.0 0.0 0.00 0.00 0.00 77 1016.6
20260505151525 56 0.0 0.0 0.00 0.00 0.00 78 1016.5
20260505120007 54 0.0 0.0 0.00 0.00 0.00 81 1015.5
20260505114510 54 0.0 0.0 0.00 0.00 0.00 81 1015.4
20260505113018 54 0.0 0.0 0.00 0.00 0.00 81 1015.5
20260505111521 54 0.0 0.0 0.00 0.00 0.00 81 1015.5
20260505101519 55 0.0 0.0 0.00 0.00 0.00 81 1015.2
20260505100024 55 0.0 0.0 0.00 0.00 0.00 82 1015.1
20260505094530 55 0.0 0.0 0.00 0.00 0.00 82 1015.1
20260505093014 54 0.0 0.0 0.00 0.00 0.00 82 1015.1
20260505091515 54 0.0 0.0 0.00 0.00 0.00 82 1015.1
20260505090019 54 0.0 0.0 0.00 0.00 0.00 83 1014.8
20260505084540 54 0.0 0.0 0.00 0.00 0.00 83 1014.9
20260505083027 54 0.0 0.0 0.00 0.00 0.00 83 1014.9
20260505081518 54 0.0 0.0 0.00 0.00 0.00 84 1014.9
20260505080015 53 0.0 0.0 0.00 0.00 0.00 84 1015.1
20260505074520 53 0.0 0.0 0.00 0.00 0.00 84 1015.0
20260505073025 53 0.0 0.0 0.00 0.00 0.00 84 1014.9